STARLINK-1043, 44748

Orbit data source: Space-Track

STARLINK-1043, 44748 is a payload satellite owned by SpaceX/Seattle (US) in LEO that was launched on Mon, 11 Nov 2019 UTC via an FALCON 9 launch vehicle from the Air Force Eastern Test Range (AFETR). Payload-class satellites include a variety of spacecraft equipped with specific instruments for various scientific and technological missions. These include communications satellites like Starlink; space stations such as the ISS; scientific satellites like the Hubble; Earth observation satellites from companies like Planet Labs, Umbra, and HawkEye 360; GPS; miniature CubeSats for education and research; and military/defense satellites.

Loading next visibility...
Identifier
44748, 2019-074AM
Orbit
LEO
Country
Flag of USUS
Related business
Manufacturer
SpaceX/Seattle
Mission
Operational Commercial Communications
Bus & Motor
STARLINK, Unknown motor
Mass
260 kg wet, ~248 kg dry
Launch date (UTC)
2019-11-11 (6 years ago)
Launch vehicle
FALCON 9
Launch site
Air Force Eastern Test Range (AFETR)
Object type
Payload
Rocket body
Debris
Shape & HBR
Box + 1 Pan, 4.4 m
Radar Cross Section
13.562 m², Large (>1 m²)

Expand to show TLE details & history
Last TLE update: 21 hours ago

TLE from 21 hours ago
0 STARLINK-1043
1 44748U 19074AM  25260.45474164 -.00000742  00000-0 -30922-4 0  9993
2 44748  53.0537 284.3038 0000786  88.1303 271.9776 15.06394808322082
Epoch: 2025-09-17T10:54Z
TLE epoch observation values (Epoch: 2025-09-17T10:54:49.677Z)
Latitude
-0.00003°
Longitude
123.96634°
Altitude
548.088 km
Speed
7.589 km/s
True Right ascension
18h 57m 12s
True Declination
0° 00' 00"
Sunlit
Object was in daylight at epoch
Visualization orbit readout
Latitude
Unknown
Longitude
Unknown
Altitude
Unknown
Speed
Unknown
Apparent Right ascension
Unknown
Apparent Declination
Unknown
Sunlit
N/A
Visualization observer readout
Local Sidereal Time
00:24:18
Azimuth
Unknown
Elevation
Unknown
Doppler factor
Unknown
Orbital elements
Apogee altitude
548.043 km
Perigee altitude
546.954 km
Semi-major axis
6,925.635 km
Eccentricity
0.00008
Inclination
53.0537°
RAAN
284.3038°
Arg. of periapsis
88.1303°
True anomaly
271.9686°
Mean anomaly
271.9776°
Eccentric anomaly
271.9731°
Mean motion
3.76577 °/min
Orbital period
95.6 mins
BSTAR
-0.000030922
Loading maneuver chart data...
Computing Atmospheric mass density...

Documentation

Showing up to 5 results
|